| time (UTC) | temp F | wind direction | speed MPH | gust MPH | rain 1hr in | rain 24hr in | rain mn in | humidity % | barometer mb |
| 20260502170517 | 63 | 225 | 4.0 | 11.0 | 0.00 | 0.00 | 0.00 | 17 | 1025.2 |
| 20260502163517 | 61 | 315 | 2.0 | 6.0 | 0.00 | 0.00 | 0.00 | 19 | 1025.3 |
| 20260502162517 | 61 | 113 | 2.0 | 3.0 | 0.00 | 0.00 | 0.00 | 16 | 1025.3 |
| 20260502161517 | 60 | 113 | 3.0 | 5.0 | 0.00 | 0.00 | 0.00 | 20 | 1025.4 |
| 20260502160517 | 58 | 135 | 4.0 | 7.0 | 0.00 | 0.00 | 0.00 | 21 | 1025.2 |
| 20260502151517 | 51 | 90 | 6.0 | 9.0 | 0.00 | 0.00 | 0.00 | 33 | 1025.7 |
| 20260502150537 | 49 | 113 | 5.0 | 9.0 | 0.00 | 0.00 | 0.00 | 37 | 1025.8 |
| 20260502130517 | 29 | 0.0 | 0.0 | 0.00 | 0.00 | 0.00 | 64 | 1024.5 | |
| 20260502123517 | 28 | 0.0 | 2.0 | 0.00 | 0.00 | 0.00 | 63 | 1024.0 | |
| 20260502122518 | 28 | 0.0 | 2.0 | 0.00 | 0.00 | 0.00 | 63 | 1023.9 | |
| 20260502121557 | 28 | 0.0 | 0.0 | 0.00 | 0.00 | 0.00 | 62 | 1024.0 | |
| 20260502120537 | 28 | 0.0 | 0.0 | 0.00 | 0.00 | 0.00 | 62 | 1024.0 | |
| 20260502115537 | 28 | 0.0 | 2.0 | 0.00 | 0.00 | 0.00 | 62 | 1024.5 | |
| 20260502114537 | 28 | 0.0 | 0.0 | 0.00 | 0.00 | 0.00 | 62 | 1024.5 | |
| 20260502113517 | 29 | 90 | 1.0 | 3.0 | 0.00 | 0.00 | 0.00 | 62 | 1024.4 |
| 20260502112516 | 29 | 90 | 2.0 | 3.0 | 0.00 | 0.00 | 0.00 | 62 | 1024.4 |
| 20260502111516 | 29 | 0.0 | 0.0 | 0.00 | 0.00 | 0.00 | 62 | 1024.5 | |
| 20260502110557 | 29 | 90 | 1.0 | 3.0 | 0.00 | 0.00 | 0.00 | 62 | 1024.6 |
| 20260502105517 | 29 | 0.0 | 2.0 | 0.00 | 0.00 | 0.00 | 62 | 1024.5 | |
| 20260502104537 | 29 | 90 | 2.0 | 4.0 | 0.00 | 0.00 | 0.00 | 62 | 1024.5 |
| 20260502103556 | 29 | 90 | 2.0 | 4.0 | 0.00 | 0.00 | 0.00 | 62 | 1024.4 |
| 20260502102516 | 29 | 68 | 1.0 | 4.0 | 0.00 | 0.00 | 0.00 | 60 | 1024.4 |
| 20260502101516 | 30 | 0.0 | 0.0 | 0.00 | 0.00 | 0.00 | 60 | 1024.7 | |
| 20260502100536 | 30 | 0.0 | 0.0 | 0.00 | 0.00 | 0.00 | 60 | 1024.8 | |
| 20260502090518 | 32 | 0.0 | 2.0 | 0.00 | 0.00 | 0.00 | 59 | 1024.8 | |
| 20260502070558 | 35 | 0.0 | 0.0 | 0.00 | 0.00 | 0.00 | 53 | 1024.8 | |
| 20260502065538 | 35 | 0.0 | 0.0 | 0.00 | 0.00 | 0.00 | 54 | 1024.9 | |
| 20260502064536 | 35 | 23 | 1.0 | 3.0 | 0.00 | 0.00 | 0.00 | 54 | 1024.9 |
| 20260502063518 | 36 | 23 | 2.0 | 3.0 | 0.00 | 0.00 | 0.00 | 52 | 1024.6 |
| 20260502062516 | 36 | 0.0 | 2.0 | 0.00 | 0.00 | 0.00 | 50 | 1024.6 | |
| 20260502060516 | 37 | 0.0 | 0.0 | 0.00 | 0.00 | 0.00 | 50 | 1024.5 | |
| 20260502055516 | 37 | 0.0 | 0.0 | 0.00 | 0.00 | 0.00 | 49 | 1024.3 | |
| 20260502054556 | 38 | 315 | 2.0 | 4.0 | 0.00 | 0.00 | 0.00 | 51 | 1023.9 |
| 20260502053518 | 37 | 315 | 2.0 | 3.0 | 0.00 | 0.00 | 0.00 | 50 | 1023.9 |
| 20260502052558 | 38 | 0.0 | 0.0 | 0.00 | 0.00 | 0.00 | 48 | 1023.8 | |
| 20260502051538 | 39 | 0.0 | 0.0 | 0.00 | 0.00 | 0.00 | 47 | 1024.0 | |
| 20260502050518 | 39 | 0.0 | 0.0 | 0.00 | 0.00 | 0.00 | 45 | 1024.0 | |
| 20260502045618 | 40 | 0.0 | 1.0 | 0.00 | 0.00 | 0.00 | 44 | 1023.9 | |
| 20260502044558 | 40 | 0.0 | 0.0 | 0.00 | 0.00 | 0.00 | 42 | 1023.9 | |
| 20260502043516 | 41 | 315 | 1.0 | 2.0 | 0.00 | 0.00 | 0.00 | 41 | 1023.9 |
| 20260502042556 | 42 | 0.0 | 0.0 | 0.00 | 0.00 | 0.00 | 42 | 1023.8 | |
| 20260502041518 | 42 | 0.0 | 0.0 | 0.00 | 0.00 | 0.00 | 39 | 1023.8 | |
| 20260502040518 | 43 | 0.0 | 0.0 | 0.00 | 0.00 | 0.00 | 38 | 1023.3 | |
| 20260502035518 | 43 | 0.0 | 0.0 | 0.00 | 0.00 | 0.00 | 39 | 1023.2 | |
| 20260502034538 | 45 | 0.0 | 0.0 | 0.00 | 0.00 | 0.00 | 36 | 1023.4 | |
| 20260502033538 | 46 | 0.0 | 1.0 | 0.00 | 0.00 | 0.00 | 33 | 1023.3 | |
| 20260502032558 | 48 | 315 | 1.0 | 2.0 | 0.00 | 0.00 | 0.00 | 32 | 1023.1 |
| 20260502031516 | 50 | 0.0 | 0.0 | 0.00 | 0.00 | 0.00 | 31 | 1023.4 | |
| 20260502030516 | 52 | 0.0 | 2.0 | 0.00 | 0.00 | 0.00 | 28 | 1023.4 | |
| 20260502025516 | 55 | 315 | 1.0 | 3.0 | 0.00 | 0.00 | 0.00 | 25 | 1023.5 |
| 20260502024518 | 57 | 315 | 1.0 | 3.0 | 0.00 | 0.00 | 0.00 | 22 | 1023.4 |
| 20260502023518 | 58 | 315 | 2.0 | 4.0 | 0.00 | 0.00 | 0.00 | 16 | 1023.3 |
| 20260502022518 | 59 | 293 | 3.0 | 4.0 | 0.00 | 0.00 | 0.00 | 14 | 1022.8 |
| 20260502021517 | 61 | 270 | 3.0 | 5.0 | 0.00 | 0.00 | 0.00 | 13 | 1022.7 |
| 20260502020518 | 61 | 248 | 3.0 | 5.0 | 0.00 | 0.00 | 0.00 | 13 | 1022.7 |
| 20260502015658 | 62 | 248 | 5.0 | 8.0 | 0.00 | 0.00 | 0.00 | 12 | 1022.2 |
| 20260502014516 | 62 | 248 | 4.0 | 8.0 | 0.00 | 0.00 | 0.00 | 13 | 1021.4 |
| 20260502013558 | 63 | 248 | 5.0 | 10.0 | 0.00 | 0.00 | 0.00 | 14 | 1021.4 |
| 20260502012658 | 63 | 248 | 7.0 | 11.0 | 0.00 | 0.00 | 0.00 | 12 | 1021.3 |
| 20260502011538 | 64 | 248 | 6.0 | 9.0 | 0.00 | 0.00 | 0.00 | 12 | 1021.5 |
| 20260502010517 | 64 | 248 | 8.0 | 13.0 | 0.00 | 0.00 | 0.00 | 11 | 1021.2 |
| 20260502005537 | 64 | 248 | 6.0 | 10.0 | 0.00 | 0.00 | 0.00 | 11 | 1021.2 |
| 20260502004537 | 64 | 248 | 8.0 | 15.0 | 0.00 | 0.00 | 0.00 | 13 | 1021.2 |
| 20260502003537 | 65 | 270 | 9.0 | 12.0 | 0.00 | 0.00 | 0.00 | 12 | 1021.7 |
| 20260502002517 | 65 | 203 | 8.0 | 11.0 | 0.00 | 0.00 | 0.00 | 11 | 1021.6 |
| 20260502001517 | 65 | 248 | 6.0 | 11.0 | 0.00 | 0.00 | 0.00 | 12 | 1021.5 |
| 20260502000517 | 65 | 248 | 9.0 | 15.0 | 0.00 | 0.00 | 0.00 | 11 | 1021.6 |
| 20260501235517 | 66 | 225 | 6.0 | 10.0 | 0.00 | 0.00 | 0.00 | 13 | 1021.7 |
| 20260501234518 | 66 | 225 | 9.0 | 13.0 | 0.00 | 0.00 | 0.00 | 11 | 1021.7 |
| 20260501233537 | 66 | 225 | 4.0 | 9.0 | 0.00 | 0.00 | 0.00 | 10 | 1021.7 |
| 20260501232517 | 66 | 180 | 3.0 | 11.0 | 0.00 | 0.00 | 0.00 | 11 | 1022.1 |
| 20260501231537 | 66 | 203 | 6.0 | 12.0 | 0.00 | 0.00 | 0.00 | 13 | 1022.2 |
| 20260501230517 | 66 | 248 | 10.0 | 15.0 | 0.00 | 0.00 | 0.00 | 13 | 1022.3 |
| 20260501225537 | 66 | 248 | 3.0 | 8.0 | 0.00 | 0.00 | 0.00 | 12 | 1022.4 |
| 20260501224517 | 66 | 270 | 7.0 | 11.0 | 0.00 | 0.00 | 0.00 | 15 | 1022.7 |
| 20260501223617 | 66 | 270 | 6.0 | 13.0 | 0.00 | 0.00 | 0.00 | 14 | 1022.8 |
| 20260501222617 | 66 | 225 | 8.0 | 13.0 | 0.00 | 0.00 | 0.00 | 13 | 1022.9 |
| 20260501221537 | 66 | 225 | 6.0 | 13.0 | 0.00 | 0.00 | 0.00 | 14 | 1023.5 |
| 20260501215537 | 65 | 270 | 8.0 | 14.0 | 0.00 | 0.00 | 0.00 | 14 | 1023.5 |
| 20260501214537 | 65 | 270 | 9.0 | 15.0 | 0.00 | 0.00 | 0.00 | 16 | 1023.6 |
| 20260501213637 | 65 | 248 | 9.0 | 17.0 | 0.00 | 0.00 | 0.00 | 13 | 1023.5 |
| 20260501212617 | 65 | 225 | 6.0 | 12.0 | 0.00 | 0.00 | 0.00 | 14 | 1024.2 |
| 20260501211517 | 65 | 180 | 9.0 | 13.0 | 0.00 | 0.00 | 0.00 | 14 | 1023.8 |
| 20260501210537 | 65 | 180 | 8.0 | 16.0 | 0.00 | 0.00 | 0.00 | 13 | 1024.2 |
| 20260501205617 | 64 | 203 | 8.0 | 14.0 | 0.00 | 0.00 | 0.00 | 15 | 1023.9 |
| 20260501204517 | 64 | 203 | 6.0 | 12.0 | 0.00 | 0.00 | 0.00 | 18 | 1024.0 |
| 20260501203537 | 64 | 270 | 9.0 | 12.0 | 0.00 | 0.00 | 0.00 | 16 | 1024.4 |
| 20260501202517 | 63 | 225 | 4.0 | 10.0 | 0.00 | 0.00 | 0.00 | 16 | 1024.0 |
| 20260501201617 | 63 | 248 | 6.0 | 12.0 | 0.00 | 0.00 | 0.00 | 15 | 1024.5 |
| 20260501200637 | 63 | 225 | 8.0 | 14.0 | 0.00 | 0.00 | 0.00 | 17 | 1024.6 |
| 20260501195557 | 63 | 248 | 5.0 | 14.0 | 0.00 | 0.00 | 0.00 | 18 | 1024.8 |
| 20260501194517 | 62 | 225 | 5.0 | 9.0 | 0.00 | 0.00 | 0.00 | 17 | 1024.3 |
| 20260501193517 | 62 | 225 | 4.0 | 12.0 | 0.00 | 0.00 | 0.00 | 18 | 1024.9 |
| 20260501192517 | 62 | 225 | 7.0 | 10.0 | 0.00 | 0.00 | 0.00 | 18 | 1025.0 |
| 20260501191517 | 62 | 203 | 6.0 | 14.0 | 0.00 | 0.00 | 0.00 | 18 | 1025.1 |
| 20260501190537 | 61 | 135 | 6.0 | 10.0 | 0.00 | 0.00 | 0.00 | 18 | 1025.2 |
| 20260501185517 | 61 | 135 | 8.0 | 12.0 | 0.00 | 0.00 | 0.00 | 17 | 1025.3 |
| 20260501184557 | 61 | 180 | 7.0 | 13.0 | 0.00 | 0.00 | 0.00 | 19 | 1025.4 |
| 20260501183517 | 61 | 270 | 6.0 | 13.0 | 0.00 | 0.00 | 0.00 | 18 | 1025.9 |
| 20260501182517 | 60 | 180 | 5.0 | 10.0 | 0.00 | 0.00 | 0.00 | 19 | 1025.7 |
| 20260501181537 | 59 | 113 | 4.0 | 8.0 | 0.00 | 0.00 | 0.00 | 19 | 1025.7 |
| 20260501180517 | 59 | 135 | 3.0 | 10.0 | 0.00 | 0.00 | 0.00 | 20 | 1025.8 |